NOAA 16 DEB, 41212

Orbit data source: Space-Track

NOAA 16 DEB, 41212 is space debris in SSO originally from a launch on Thu, 21 Sep 2000 UTC launched from the Air Force Western Test Range (AFWTR). Debris objects in space refer to the collection of defunct objects orbiting the Earth. Examples of debris include non-operational satellites, rocket bodies, and fragments generated from explosions, collisions, or faulty payload assembly.

Loading next visibility...
Identifier
41212, 2000-055DR
Orbit
SSO
Country
Flag of USUS
Related business
Manufacturer
Unknown
Mission
Spacecraft
Bus & Motor
Unknown
Mass
Unknown
Launch date (UTC)
2000-09-21 (25 years ago)
Launch vehicle
Unknown
Launch site
Air Force Western Test Range (AFWTR)
Object type
Payload
Rocket body
Debris
Shape & HBR
Unknown shape, 0.1 m
Radar Cross Section
Small (<0.1 m²)

Expand to show TLE details & history
Last TLE update: 2 days ago

TLE from 2 days ago
0 NOAA 16 DEB
1 41212U 00055DR  25350.34471025  .00004466  00000-0  15384-2 0  9994
2 41212  98.9376 127.5658 0015577 129.7938 230.4621 14.36384494518943
Epoch: 2025-12-16T08:16Z
TLE epoch observation values (Epoch: 2025-12-16T08:16:22.965Z)
Latitude
-0.00003°
Longitude
-81.76015°
Altitude
780.499 km
Speed
7.46 km/s
True Right ascension
08h 30m 15s
True Declination
0° 00' 00"
Sunlit
Object was in full shadow at epoch
Visualization orbit readout
Latitude
Unknown
Longitude
Unknown
Altitude
Unknown
Speed
Unknown
Apparent Right ascension
Unknown
Apparent Declination
Unknown
Sunlit
N/A
Visualization observer readout
Local Sidereal Time
12:55:28
Azimuth
Unknown
Elevation
Unknown
Doppler factor
Unknown
Orbital elements
Apogee altitude
778.748 km
Perigee altitude
756.486 km
Semi-major axis
7,145.754 km
Eccentricity
0.00156
Inclination
98.9376°
RAAN
127.5658°
Arg. of periapsis
129.7938°
True anomaly
230.32461°
Mean anomaly
230.4621°
Eccentric anomaly
230.39334°
Mean motion
3.59311 °/min
Orbital period
100.19 mins
BSTAR
0.0015384
Loading maneuver chart data...
Computing Atmospheric mass density...
Loading historical data...
Loading historical data...
Loading historical data...
Loading historical data...
Loading historical data...
Loading historical data...
Loading historical data...

Documentation

Showing up to 5 results
|